Regional Weather Roundup
Issued by NWS Sterling, VA

Home | Current Version | Previous Version | Graphics & Text | Print | Product List | Glossary On
Versions: 1 2 3 4 5 6 7 8 9 10 11 12 13 14 15 16 17 18 19 20 21 22 23 24 25 26 27 28 29 30 31 32 33 34 35 36 37 38 39 40 41 42 43 44 45 46 47 48 49 50
000
ASUS41 KLWX 141410
RWRLWX

REGIONAL WEATHER ROUNDUP
NATIONAL WEATHER SERVICE BALTIMORE MD/WASHINGTON DC
900 AM EST THU DEC 14 2017

Note: "FAIR" indicates few or no clouds below 12,000 feet
with no significant weather and/or obstructions to visibility.
 TC=TEMPERATURE CELSIUS

 * =Non NWS site. Station does not report precipitation (e.g. rain,
    snow, etc.), thunder, or fog.

DCZ001-MDZ009-015-VAZ040>042-051-053>054-141500-
WASHINGTON METRO

CITY           SKY/WX    TMP DP  RH WIND       PRES   REMARKS
WASHINGTON NAT MOSUNNY   41  22  46 W13G18    29.72R
DULLES         PTSUNNY   39  23  52 NW24G32   29.71R WCI  28
ANDREWS AFB    MOSUNNY   39  18  41 W13G18    29.66R
FT BELVOIR     MOSUNNY   39  20  45 NW5       29.73R
QUANTICO       PTSUNNY   40  22  48 NW7       29.74R
COLLEGE PARK*  PTSUNNY   38  21  48 W7        29.70R
LEESBURG*      CLOUDY    41  28  60 NW12G18   29.73R
MANASSAS*      MOSUNNY   42  23  46 NW17G24   29.73R
GAITHERSBURG*  MOSUNNY   37  26  64 NW13      29.70R WCI  29

$$

MDZ006>007-011-014-141500-
BALTIMORE METRO

CITY           SKY/WX    TMP DP  RH WIND       PRES   REMARKS
BWI AIRPORT    MOSUNNY   38  25  59 W8        29.69R
MD SCIENCE CTR   N/A     40  25  55 MISG      29.70R
MARTIN STATE   MOSUNNY   39  27  60 W12       29.71R
ANNAPOLIS      MOSUNNY   41  26  55 W9G23     29.70R
FORT MEADE*    PTSUNNY   36  23  60 W6        29.72R

$$

MDZ012-015-019>023-141500-
MARYLAND EASTERN SHORE

CITY           SKY/WX    TMP DP  RH WIND       PRES   REMARKS
OCEAN CITY     CLOUDY    42  27  55 W12G21    29.69R
SALISBURY      CLOUDY    42  27  55 W10       29.70R
BAY BRIDGE AP* SUNNY     39  25  56 NW14G21   29.70R
CAMBRIDGE*     PTSUNNY   41  23  48 W9        29.71R
EASTON*        MOSUNNY   41  23  48 W7        29.73R

$$

MDZ017>025-141500-
SOUTHERN MARYLAND

CITY           SKY/WX    TMP DP  RH WIND       PRES   REMARKS
PATUXENT RIVER CLOUDY    40  21  46 W12       29.71R
ST INIGOES     CLOUDY    41  24  51 W13G18    29.72R
LEONARDTOWN*   CLOUDY    37  23  56 W8        29.72R

$$

MDZ003>005-141500-
NORTH CENTRAL MARYLAND

CITY           SKY/WX    TMP DP  RH WIND       PRES   REMARKS
FREDERICK*     CLOUDY    37  25  60 NW9       29.74R
HAGERSTOWN APT PTSUNNY   34  26  72 NW16G23   29.73R WCI  24
WESTMINSTER*   FLURRIES  34  28  80 NW13G23   29.68R WCI  25

$$

MDZ501>502-141500-
WESTERN MARYLAND

CITY           SKY/WX    TMP DP  RH WIND       PRES   REMARKS
OAKLAND*       CLOUDY    19  18  93 W9G22     29.66R WCI   9
CUMBERLAND*    CLOUDY    32  23  69 N13G25    29.83R WCI  22

$$

VAZ025>031-141500-
SHENANDOAH VALLEY

CITY           SKY/WX    TMP DP  RH WIND       PRES   REMARKS
WINCHESTER*    CLOUDY    36  21  55 NW6G21    29.73R
FRONT ROYAL*   PTSUNNY   37  21  52 CALM      29.71R
LURAY*         CLOUDY    39  23  52 W7        29.71R
NEW MARKET*    CLOUDY    37  20  50 CALM      29.72R
STAUNTON*      CLOUDY    38  20  49 NW14      29.74R
WAYNESBORO*    CLOUDY    38  20  48 W12G28    29.71R

$$

WVZ021-048>050-054>055-141500-
EASTERN WEST VIRGINIA PANHANDLE

CITY           SKY/WX    TMP DP  RH WIND       PRES   REMARKS
MARTINSBURG    CLOUDY    36  24  62 NW16      29.73R WCI  26
PETERSBURG*    PTSUNNY   34  20  56 W7        29.76R

$$

VAZ036>039-050-141500-
CENTRAL FOOTHILLS

CITY           SKY/WX    TMP DP  RH WIND       PRES   REMARKS
CHARLOTTESVILL CLOUDY    45  22  40 W13G23    29.72R
CULPEPER*      PTSUNNY   43  21  41 NW7       29.72R
ORANGE*        CLOUDY    34  23  64 CALM      29.70R
GORDONSVILLE*  CLOUDY    43  23  44 W12G24    29.70R
WARRENTON*     CLOUDY    37  19  48 SE3       29.72R

$$

VAZ055>057-141500-
NORTH AND CENTRAL PIEDMONT

CITY           SKY/WX    TMP DP  RH WIND       PRES   REMARKS
FREDERICKSBRG*   N/A    N/A N/A N/A MISG        N/A
STAFFORD*      CLOUDY    37  20  50 CALM      29.76R

$$

NCZ024-NYZ072-PAZ021-071-VAZ022-071-141500-
OTHER REGIONAL OBSERVATIONS

CITY           SKY/WX    TMP DP  RH WIND       PRES   REMARKS
NEW YORK CITY  PTSUNNY   26  22  84 VRB5      29.66R
PHILADELPHIA   MOSUNNY   37  24  59 W16G24    29.65R WCI  28
PITTSBURGH     LGT SNOW  25  21  85 NW9       29.85R VSB 3/4 WCI  15
ROANOKE        CLOUDY    45  25  45 W17G28    29.75R
RICHMOND       PTSUNNY   42  21  43 SW9       29.73R
RALEIGH        MOSUNNY   38  23  55 SW7       29.81R

$$

ANZ530>537-141500-
MARINE OBSERVATIONS

STATION/POSITION TIME  TEMP    WIND        PRES
                       AIR SEA DIR/SP/G
                 (UTC) (F)     (DEG/KT/KT) (MB)
THOMAS PT LIGHT  1400   39 44  270/  9/ 10   N/A
BALT KEY BRIDGE  1348   39     270/ 13/ 15 1005.1R
COVE POINT       1348   40     270/  9/ 14 1006.5R
LEWISETTA        1348   41 40  310/ 12/ 15 1006.3R
SOLOMONS ISLAND  1348   41 46  290/  6/ 12 1005.9R
PINEY POINT      1348          310/ 12/ 14   N/A

$$




USA.gov is the U.S. government's official web portal to all federal, state and local government web resources and services.